883  
ASUS46 KLOX 011510  
RWRCA  
 
SOUTHERN CALIFORNIA WEATHER ROUNDUP  
NATIONAL WEATHER SERVICE OXNARD CALIFORNIA  
800 AM PDT THU JUN 01 2023  
 
NOTE: "FAIR" INDICATES FEW OR NO CLOUDS BELOW 12,000 FEET WITH NO  
SIGNIFICANT WEATHER AND/OR S TO VISIBILITY
.  
 
- STATIONS PRECEEDED BY AN ASTERISK (*) ARE NOT NWS OR FAA  
STATIONS AND ARE NOT SUBJECT TO NWS AND FAA QUALITY CONTROL.
 
 
CAZ041-042-087-011600-  
LA AND ORANGE COUNTY COASTAL AREAS  
 
 
CITY SKY/WX TMP DP RH WIND PRES REMARKS
 
L.A. DOWNTOWN CLOUDY 63 54 72 CALM 29.92R  
L.A. AIRPORT CLOUDY 61 55 81 SW6 29.91R  
LONG BEACH CLOUDY 61 54 77 VRB3 29.91R  
 
CITY SKY/WX TMP DP RH WIND PRES REMARKS
 
FULLERTON CLOUDY 62 54 74 CALM 29.91R  
HAWTHORNE CLOUDY 65 53 65 SW5 29.92R  
*LEO CARRILLO N/A 62 56 80 W2 N/A  
*LOS ALAMITOS CLOUDY 61 56 85 SW5 29.89R  
SANTA ANA CLOUDY 62 52 69 CALM 29.91R  
STA MONICA APT CLOUDY 61 52 72 SW5 29.91R  
*STA MON PIER N/A 61 57 85 SW3 29.86R  
TORRANCE CLOUDY 63 55 77 CALM 29.91R  
 

 
 
CAZ547-548-048-011600-  
LA COUNTY VALLEYS AND INLAND EMPIRE  
 
 
CITY SKY/WX TMP DP RH WIND PRES REMARKS
 
BURBANK CLOUDY 58 53 84 S3 29.91R  
VAN NUYS CLOUDY 61 51 70 S3 29.90R  
 
CITY SKY/WX TMP DP RH WIND PRES REMARKS
 
CORONA AIRPORT CLOUDY 61 55 81 W6 29.92R  
*CHATSWORTH N/A 59 52 77 CALM 29.91R  
CHINO CLOUDY 61 53 75 W6 29.92R  
*NORTHRIDGE N/A 59 50 72 S1 N/A  
ONTARIO CLOUDY 59 53 80 SW6 29.91R  
*PASADENA N/A 59 57 94 CALM N/A  
POMONA CLOUDY 57 54 88 W3 29.92  
RIVERSIDE CLOUDY 59 53 80 W3 29.91R  
SAN BERNARDINO CLOUDY 59 52 77 CALM 29.92R  
*SAN RAFAEL HI N/A 54 54 100 SW3 N/A  
*SAUGUS N/A 57 53 86 CALM N/A  
*WHITEMAN AP CLOUDY 57 54 88 CALM 29.94  
*WHITTIER HILL N/A 59 57 93 CALM N/A  
 

 
 
CAZ054-055-011600-  
LA AND SAN BERNARDINO COUNTY MOUNTAINS  
 
 
CITY SKY/WX TMP DP RH WIND PRES REMARKS
 
*BIG BEAR AIRP SUNNY 50 32 50 CALM 30.03R  
*CHILAO N/A 59 45 60 CALM N/A  
SANDBERG NOT AVBL  
*WARM SPRINGS N/A 48 48 100 CALM N/A  
 

 
 
CAZ028-029-059-060-099-011600-  
ANTELOPE VALLEY AND SURROUNDING AREAS  
 
 
CITY SKY/WX TMP DP RH WIND PRES REMARKS
 
LANCASTER SUNNY 64 48 56 SW15 29.85R  
PALMDALE SUNNY 63 47 55 SW13 29.87R  
*POPPY PARK N/A 59 49 70 SW14G25 N/A  
 
CITY SKY/WX TMP DP RH WIND PRES REMARKS
 
29 PALMS SUNNY 68 44 42 NW6 29.90R  
BARSTOW/DAGGET SUNNY 66 46 48 W13 29.84R  
BISHOP SUNNY 65 43 44 N7 29.89R  
CHINA LAKE SUNNY 67 44 43 SW3 29.81R  
MOJAVE FAIR 66 45 45 NE6 29.84R  
NEEDLES SUNNY 77 45 32 NE8 29.80R  
VICTORVILLE SUNNY 59 45 58 SE8 29.90R  
 

 
 
CAZ039-040-011600-  
VENTURA AND SANTA BARBARA COUNTY COAST  
 
 
CITY SKY/WX TMP DP RH WIND PRES REMARKS
 
CAMARILLO CLOUDY 61 55 81 NW3 29.91R  
NWS OXNARD N/A 60 48 64 SW3 29.88R  
OXNARD AIRPORT CLOUDY 60 54 80 W8 29.91R  
*POINT MUGU CLOUDY 61 55 81 W5 29.92R HAZE  
SBA APT/GOLETA CLOUDY 61 54 77 CALM 29.90R  
*SANTA BARBARA N/A 60 54 80 CALM 29.98R  
 

 
 
CAZ044-045-011600-  
VENTURA COUNTY VALLEYS  
 
 
CITY SKY/WX TMP DP RH WIND PRES REMARKS
 
*SIMI VALLEY N/A 58 54 88 CALM 29.87R  
*N 1000 OAKS N/A 57 55 91 NW2 29.92R  
*TO CIVIC ARTS N/A 61 57 88 MISG N/A  
*WESTLAKE VILL N/A 58 52 80 CALM 29.88R  
*OJAI N/A 58 54 86 CALM 28.63S  
*FILLMORE N/A 59 55 87 CALM 29.96R  
 

 
 
CAZ053-011600-  
VENTURA COUNTY MOUNTAINS  
 
 
CITY SKY/WX TMP DP RH WIND PRES REMARKS
 
*LOCKWOOD VLY N/A 61 45 55 MISG N/A  
*ROSE VALLEY N/A 50 46 87 N2 N/A  
 

 
 
CAZ034-035-036-011600-  
CENTRAL COAST AND SANTA YNEZ VALLEY  
 
 
CITY SKY/WX TMP DP RH WIND PRES REMARKS
 
SAN LUIS OBISP CLOUDY 54 48 80 NW7 29.95R  
SANTA MARIA CLOUDY 53 48 83 CALM 29.95R  
 
CITY SKY/WX TMP DP RH WIND PRES REMARKS
 
*CAL POLY SLO N/A 54 52 94 CALM N/A  
*LOMPOC N/A N/A N/A N/A MISG N/A  
*PISMO BEACH N/A 54 49 83 S3 29.95R  
*SANTA YNEZ CLOUDY 54 50 87 NW6 29.94R  
 

 
 
CAZ037-038-051-011600-  
SAN LUIS OBISPO COUNTY INTERIOR AND CUYAMA VALLEY  
 
 
CITY SKY/WX TMP DP RH WIND PRES REMARKS
 
*CUYAMA N/A 49 47 93 CALM 29.80S  
PASO ROBLES CLOUDY 50 45 83 NW6 29.94R  
 

 
 
CAZ032-033-061-011600-  
SOUTHERN DESERTS  
 
 
CITY SKY/WX TMP DP RH WIND PRES REMARKS
 
BLYTHE SUNNY 72 50 45 S12 29.80R  
IMPERIAL SUNNY 69 52 54 SW5 29.79R  
PALM SPRINGS SUNNY 71 49 45 VRB3 29.80R  
THERMAL SUNNY 70 51 51 NW14 29.78R  
 

 
 
ELSEWHERE ACROSS THE WESTERN UNITED STATES AND MEXICO  
 
 
CITY SKY/WX TMP DP RH WIND PRES REMARKS
 
DEATH VALLEY, N/A 83 47 28 S7 N/A  
DENVER, CO LGT RAIN 56 52 86 NW8 29.92S  
GRAND CANYON, CLOUDY 52 32 46 SW8 30.03R  
HONOLULU, HI PTCLDY 75 66 73 E13 30.07R  
KAHULUI, MAUI CLEAR 70 63 78 E6 30.06R  
LAKE TAHOE, CA SUNNY 45 37 73 S3 29.99S  
LAS VEGAS, NV MOSUNNY 73 38 27 SW3 29.80R  
MAMMOTH LAKES, FAIR 50 35 55 SE5 30.03R  
MEXICO CITY, M SUNNY 72 52 49 CALM 30.29R  
PHOENIX, AZ MOSUNNY 74 38 27 SE8 29.84R  
PORTLAND, OR MOSUNNY 53 44 71 CALM 30.12S  
RENO, NV SUNNY 57 43 59 S3 29.93R  
SALT LAKE CITY MOSUNNY 68 48 48 W5 29.83R  
SAN DIEGO, CA CLOUDY 62 55 77 NW5 29.94R  
SAN FRANCISCO, MOSUNNY 57 48 72 S6 29.90R  
SAN JOSE, CA MOSUNNY 56 46 69 SE15 29.91R  
SEATTLE, WA MOSUNNY 53 42 66 NE10 30.10S  
TIJUANA, MEX CLOUDY 59 57 94 CALM 29.95R  
 

 
 
STATION/POSITION TIME TEMP WIND PRES VSBY WAVE
 
AIR SEA DIR/SP/G HT/PER  
(UTC) (F) (DEG/KT/KT) (MB) (MI) (FT/S)  
WEST SANTA BARBA 1450 55 58 330/ 16/ 19 1013.3R 8/11  
EAST SANTA BARBA 1450 58 62 240/ 10/ 12 1011.9R 3/11  
SANTA MONICA BAY 1450 60 63 330/ 6/ 6 1013.2R 3/14  
SAN CLEMENTE BAS 1450 59 63 280/ 6/ 10 1012.7R 5/14  
 
CLICK HERE TO GO TO PREVIOUS BULLETINS.

The Nexlab CA Page Main Text Page